Regional Weather Roundup
Issued by NWS State College, PA

Home | Current Version | Previous Version | Graphics & Text | Print | Product List | Glossary On
Versions: 1 2 3 4 5 6 7 8 9 10 11 12 13 14 15 16 17 18 19 20 21 22 23 24 25 26 27 28 29 30 31 32 33 34 35 36 37 38 39 40 41 42 43 44 45 46 47 48 49 50
000
ASUS41 KCTP 240110
RWRCTP

REGIONAL WEATHER ROUNDUP
NATIONAL WEATHER SERVICE STATE COLLEGE PA
900 PM EDT SAT MAY 23 2015

Note: "fair" indicates few or no clouds below 12,000 feet with no
significant weather and/or obstructions to visibility.

* = STATION THAT DOES NOT REPORT PRECIPITATION /E.G. RAIN...SNOW...ETC/
    THUNDER OR FOG.

PAZ002>004-007>009-013>016-020>023-029>032-240200-
WESTERN PENNSYLVANIA

CITY           SKY/WX    TMP DP  RH WIND       PRES   REMARKS
ERIE           CLEAR     59  30  33 S3        30.32F
MEADVILLE      CLEAR     59  33  37 CALM      30.33F
FRANKLIN*      CLEAR     59  32  36 CALM      30.35S
NEW CASTLE     FAIR      59  40  49 CALM      30.34S
BEAVER COUNTY  CLEAR     64  34  32 CALM      30.34S
BUTLER*        CLEAR     59  36  41 CALM      30.36S
PITTSBURGH INT PTCLDY    67  37  33 SW3       30.34R
PITTSBURGH     CLEAR     66  29  24 W5        30.34R
INDIANA*       CLEAR     57  41  54 E5        30.38F
LATROBE        PTCLDY    63  41  45 CALM      30.36S
WASHINGTON CO* CLEAR     54  45  71 CALM      30.36S
$$

PAZ004>006-010>012-017>019-024>028-033>037-041-042-045-046-049>053-240200-
CENTRAL PENNSYLVANIA

CITY           SKY/WX    TMP DP  RH WIND       PRES   REMARKS
BRADFORD       CLEAR     55  29  36 CALM      30.35R
DUBOIS         CLEAR     58  34  40 CALM      30.35R
CLEARFIELD     CLEAR     60  31  33 W3        30.35R
JOHNSTOWN      CLEAR     59  29  31 CALM      30.36F
ALTOONA        CLEAR     59  33  37 CALM      30.36R
STATE COLLEGE  CLEAR     63  30  29 W5        30.35R
WILLIAMSPORT   CLEAR     63  32  31 SE5       30.30S
SELINSGROVE    CLEAR     55  43  63 CALM      30.33S
FT INDIANTOWN  CLEAR     52  40  64 N3        30.34S
CAPITAL CITY   CLEAR     62  36  37 CALM      30.34S
HARRISBURG     PTCLDY    59  45  59 S3        30.33S
YORK           CLEAR     54  41  61 S5        30.35S
$$

PAZ038>040-043-044-047-048-054-055-060>062-067>071-240200-
EASTERN PENNSYLVANIA

CITY           SKY/WX    TMP DP  RH WIND       PRES   REMARKS
SCRANTON       CLEAR     59  30  33 S3        30.32S
MOUNT POCONO   CLEAR     47  32  56 CALM      30.34S
ALLENTOWN      CLEAR     57  30  35 SW6       30.34S
QUAKERTOWN*    CLEAR     55  36  47 CALM      30.36S
READING        CLEAR     63  30  28 SW3       30.34S
LANCASTER      CLEAR     62  34  35 S3        30.34F
COATESVILLE    CLEAR     59  34  38 CALM      30.37S
POTTSTOWN      CLEAR     57  32  38 CALM      30.37S
BLUE BELL      CLEAR     55  37  50 CALM      30.35S
DOYLESTOWN     CLEAR     57  30  35 S3        30.34F
WILLOW GROVE   NOT AVBL
NORTH PHILA    CLEAR     63  29  27 SW5       30.37S
PHILADELPHIA   PTCLDY    65  37  35 S7        30.37S
$$



USA.gov is the U.S. government's official web portal to all federal, state and local government web resources and services.